This is the latest recevied weather packets stored in our database for station/object N7AWM. If no packets are shown the sender has not sent any weather packets the latest 10 day(s).
| Time | Temp. | Humidity | Pressure | Rain* | Wind** | Luminosity | Snow |
|---|---|---|---|---|---|---|---|
| 1777631392 | 9.44° C | 62% | 1014.5 hPa | 0 mm | - | - | - |
| 1777630552 | 9.44° C | 64% | 1014.5 hPa | 0 mm | - | - | - |
| 1777629712 | 9.44° C | 64% | 1014.4 hPa | 0 mm | - | - | - |
| 1777628872 | 9.44° C | 62% | 1014.5 hPa | 0 mm | - | - | - |
| 1777628032 | 10° C | 61% | 1014.5 hPa | 0 mm | - | - | - |
| 1777627192 | 9.44° C | 62% | 1014.6 hPa | 0 mm | - | - | - |
| 1777626352 | 9.44° C | 62% | 1014.7 hPa | 0 mm | - | - | - |
| 1777625512 | 10.56° C | 59% | 1014.7 hPa | 0 mm | - | - | - |
| 1777624673 | 11.11° C | 57% | 1014.8 hPa | 0 mm | - | - | - |
| 1777623832 | 11.67° C | 55% | 1014.8 hPa | 0 mm | - | - | - |
| 1777622993 | 11.67° C | 55% | 1014.9 hPa | 0 mm | - | - | - |
| 1777622153 | 11.11° C | 57% | 1014.9 hPa | 0 mm | - | - | - |
| 1777621313 | 11.67° C | 56% | 1014.8 hPa | 0 mm | - | - | - |
| 1777620612 | 11.67° C | 54% | 1014.8 hPa | 0 mm | - | - | - |
| 1777620473 | 11.67° C | 54% | 1014.8 hPa | 0 mm | - | - | - |
| 1777619633 | 12.22° C | 54% | 1014.7 hPa | 0 mm | - | - | - |
| 1777618793 | 11.67° C | 56% | 1014.8 hPa | 0 mm | - | - | - |
| 1777617953 | 12.22° C | 54% | 1014.8 hPa | 0 mm | - | - | - |
| 1777617113 | 13.33° C | 50% | 1014.7 hPa | 0 mm | - | - | - |
| 1777616273 | 13.33° C | 50% | 1014.7 hPa | 0 mm | - | - | - |
| 1777615433 | 12.78° C | 51% | 1014.8 hPa | 0 mm | - | - | - |
| 1777614593 | 12.22° C | 54% | 1014.8 hPa | 0 mm | - | - | - |
| 1777613753 | 12.22° C | 53% | 1014.8 hPa | 0 mm | - | - | - |
| 1777612913 | 12.78° C | 52% | 1014.8 hPa | 0 mm | - | - | - |
| 1777612074 | 13.33° C | 51% | 1014.8 hPa | 0 mm | - | - | - |
* Rain latest hour (hover to see other rain measurements)
** Current wind speed in m/s (hover to see current wind gust speed)